GW5625 Weather Reports


time (UTC)temp
C
wind
direction
speed
KPH
gust
KPH
rain 1hr
cm
rain 24hr
cm
rain mn
cm
humidity
%
barometer
mb
20260506233028 18 227 4.8 12.9 0.00 0.00 0.00 76 1013.2
20260506231555 18 235 4.8 14.5 0.00 0.00 0.00 75 1013.3
20260506230037 19 192 6.4 16.1 0.00 0.00 0.00 75 1013.4
20260506224504 18 211 4.8 16.1 0.00 0.00 0.00 75 1013.5
20260506223027 18 224 4.8 16.1 0.00 0.00 0.00 75 1013.7
20260506221555 18 155 6.4 17.7 0.00 0.00 0.00 75 1013.9
20260506220004 19 145 6.4 16.1 0.00 0.00 0.00 75 1014.2
20260506214532 19 203 8.0 16.1 0.00 0.00 0.00 73 1014.4
20260506213054 19 234 6.4 19.3 0.00 0.00 0.00 74 1014.5
20260506211512 20 165 6.4 12.9 0.00 0.00 0.00 73 1014.5
20260506210039 20 181 4.8 14.5 0.00 0.00 0.00 73 1014.4
20260506204504 20 205 4.8 16.1 0.00 0.00 0.00 73 1014.6
20260506203030 20 237 4.8 11.3 0.00 0.00 0.00 72 1014.7
20260506201556 20 173 4.8 12.9 0.00 0.00 0.00 72 1014.9
20260506200037 20 168 4.8 12.9 0.00 0.00 0.00 72 1015.0
20260506194505 20 186 4.8 12.9 0.00 0.00 0.00 72 1015.0
20260506193028 20 159 4.8 11.3 0.00 0.00 0.00 73 1015.1
20260506191552 19 171 6.4 11.3 0.00 0.00 0.00 74 1015.4
20260506190042 20 168 3.2 8.0 0.00 0.00 0.00 72 1015.6
20260506184505 19 163 0.0 3.2 0.00 0.00 0.00 72 1015.6
20260506183028 18 164 1.6 8.0 0.00 0.00 0.00 73 1015.6
20260506181558 18 176 0.0 4.8 0.00 0.00 0.00 74 1015.7
20260506180051 18 178 0.0 6.4 0.00 0.00 0.00 73 1015.6
20260506174516 18 177 1.6 4.8 0.00 0.00 0.00 74 1015.6
20260506173045 17 174 1.6 4.8 0.00 0.00 0.00 75 1015.7
20260506171554 17 177 1.6 6.4 0.00 0.00 0.00 75 1015.7
20260506170048 16 169 0.0 3.2 0.00 0.00 0.00 77 1015.7
20260506164514 16 169 1.6 6.4 0.00 0.00 0.00 76 1015.6
20260506163036 16 155 0.0 3.2 0.00 0.00 0.00 79 1015.6
20260506161605 16 155 0.0 3.2 0.00 0.00 0.00 81 1015.7
20260506160045 15 153 0.0 4.8 0.00 0.00 0.00 83 1015.5
20260506154506 14 149 0.0 3.2 0.00 0.00 0.00 86 1015.6
20260506153028 14 125 0.0 4.8 0.00 0.00 0.00 87 1015.5
20260506151604 13 121 0.0 4.8 0.00 0.00 0.00 87 1015.5
20260506150039 13 17 0.0 0.0 0.00 0.00 0.00 87 1015.4
20260506144505 13 14 0.0 4.8 0.00 0.00 0.00 88 1015.4
20260506143041 13 336 3.2 4.8 0.00 0.00 0.00 89 1015.3
20260506141552 13 277 0.0 0.0 0.00 0.00 0.00 89 1015.1
20260506140007 12 277 0.0 0.0 0.00 0.00 0.00 89 1015.0
20260506134528 12 277 0.0 0.0 0.00 0.00 0.00 89 1014.8
20260506133053 12 277 0.0 0.0 0.00 0.00 0.00 89 1014.8
20260506131525 12 277 0.0 0.0 0.00 0.00 0.00 88 1014.8
20260506130058 12 277 0.0 1.6 0.00 0.00 0.00 88 1014.7
20260506124503 12 277 0.0 0.0 0.00 0.00 0.00 88 1014.5
20260506123028 12 277 0.0 0.0 0.00 0.00 0.00 87 1014.4
20260506121552 12 277 0.0 0.0 0.00 0.00 0.00 87 1014.4
20260506120048 12 277 0.0 1.6 0.00 0.00 0.00 87 1014.3
20260506114519 12 277 0.0 4.8 0.00 0.00 0.00 86 1014.2
20260506113029 12 257 0.0 3.2 0.00 0.00 0.00 87 1014.0
20260506111553 12 289 0.0 3.2 0.00 0.00 0.00 86 1014.0
20260506110036 12 346 0.0 3.2 0.00 0.00 0.00 86 1014.0
20260506104616 12 350 0.0 1.6 0.00 0.00 0.00 87 1013.9
20260506103025 12 350 0.0 0.0 0.00 0.00 0.00 87 1013.9
20260506101556 12 350 0.0 0.0 0.00 0.00 0.00 87 1013.9
20260506100035 12 350 0.0 0.0 0.00 0.03 0.00 87 1013.8
20260506094605 12 350 0.0 1.6 0.00 0.03 0.00 87 1013.9
20260506094507 12 350 0.0 1.6 0.00 0.03 0.00 86 1013.9
20260506093027 12 350 0.0 1.6 0.00 0.03 0.00 86 1013.9
20260506091552 12 350 0.0 4.8 0.00 0.03 0.00 86 1013.8
20260506084528 12 346 0.0 8.0 0.00 0.08 0.00 85 1013.8
20260506083047 12 176 1.6 4.8 0.00 0.08 0.00 85 1013.7
20260506081508 12 177 1.6 6.4 0.00 0.08 0.00 85 1014.0
20260506073027 12 194 0.0 3.2 0.00 0.23 0.08 85 1013.5
20260506071607 12 215 0.0 3.2 0.00 0.23 0.08 85 1013.4
20260506061552 12 244 1.6 6.4 0.00 0.28 0.08 85 1013.1
20260506044510 12 254 3.2 11.3 0.00 0.43 0.08 90 1012.6
20260506043031 12 171 4.8 11.3 0.00 0.43 0.08 89 1012.4
20260506041603 12 236 3.2 12.9 0.00 0.43 0.08 89 1012.2
20260506040040 12 202 4.8 16.1 0.00 0.43 0.08 91 1011.9
20260506034504 12 207 4.8 16.1 0.00 0.43 0.08 91 1011.6
20260506033031 12 224 6.4 17.7 0.00 0.43 0.08 91 1011.5
20260506031555 12 193 6.4 19.3 0.00 0.43 0.08 91 1011.3
20260506030036 12 236 6.4 19.3 0.00 0.43 0.08 91 1011.2
20260506024601 13 188 3.2 19.3 0.00 0.43 0.08 90 1011.1
20260506024501 13 216 6.4 19.3 0.00 0.43 0.08 90 1011.1
20260506023026 13 247 4.8 17.7 0.00 0.43 0.08 90 1011.1
20260506021555 13 234 6.4 22.5 0.00 0.43 0.08 90 1010.8
20260506020034 13 258 8.0 19.3 0.00 0.43 0.08 89 1010.5
20260506014559 13 217 8.0 22.5 0.00 0.43 0.08 88 1010.5
20260506013029 13 156 8.0 20.9 0.00 0.43 0.08 87 1010.6
20260506011550 13 243 4.8 19.3 0.00 0.43 0.08 87 1010.4
20260506010041 14 234 9.7 17.7 0.00 0.43 0.08 86 1010.5
20260506004516 14 237 6.4 16.1 0.00 0.43 0.08 85 1010.3
20260506003033 15 219 6.4 14.5 0.00 0.43 0.08 84 1010.3
20260506001609 15 202 9.7 19.3 0.00 0.43 0.08 84 1010.2
20260506000040 15 234 8.0 17.7 0.00 0.43 0.08 85 1010.1
20260505234601 14 178 8.0 17.7 0.00 0.43 0.08 85 1010.1